Year,Month,Day,Hour,Minute,Value (Times are PST for temperature in C)
2016,08,18,00,00,16.50
2016,08,18,00,01,16.50
2016,08,18,00,02,16.40
2016,08,18,00,03,16.40
2016,08,18,00,04,16.40
2016,08,18,00,05,16.30
2016,08,18,00,06,16.30
2016,08,18,00,07,16.30
2016,08,18,00,08,16.30
2016,08,18,00,09,16.20
2016,08,18,00,10,16.20
2016,08,18,00,11,16.20
2016,08,18,00,12,16.20
2016,08,18,00,13,16.20
2016,08,18,00,14,16.20
2016,08,18,00,15,16.20
2016,08,18,00,16,16.20
2016,08,18,00,17,16.20
2016,08,18,00,18,16.30
2016,08,18,00,19,16.30
2016,08,18,00,20,16.30
2016,08,18,00,21,16.30
2016,08,18,00,22,16.30
2016,08,18,00,23,16.30
2016,08,18,00,24,16.30
2016,08,18,00,25,16.30
2016,08,18,00,26,16.30
2016,08,18,00,27,16.20
2016,08,18,00,28,16.20
2016,08,18,00,29,16.10
2016,08,18,00,30,16.10
2016,08,18,00,31,16.00
2016,08,18,00,32,16.00
2016,08,18,00,33,15.90
2016,08,18,00,34,15.90
2016,08,18,00,35,15.90
2016,08,18,00,36,15.90
2016,08,18,00,37,15.80
2016,08,18,00,38,15.80
2016,08,18,00,39,15.80
2016,08,18,00,40,15.90
2016,08,18,00,41,15.90
2016,08,18,00,42,15.90
2016,08,18,00,43,15.90
2016,08,18,00,44,15.90
2016,08,18,00,45,15.90
2016,08,18,00,46,15.90
2016,08,18,00,47,15.90
2016,08,18,00,48,15.90
2016,08,18,00,49,15.90
2016,08,18,00,50,15.90
2016,08,18,00,51,15.90
2016,08,18,00,52,15.90
2016,08,18,00,53,15.90
2016,08,18,00,54,15.90
2016,08,18,00,55,15.90
2016,08,18,00,56,15.90
2016,08,18,00,57,15.90
2016,08,18,00,58,15.80
2016,08,18,00,59,15.80
2016,08,18,01,00,15.80
2016,08,18,01,01,15.80
2016,08,18,01,02,15.80
2016,08,18,01,03,15.80
2016,08,18,01,04,15.80
2016,08,18,01,05,15.80
2016,08,18,01,06,15.80
2016,08,18,01,07,15.80
2016,08,18,01,08,15.80
2016,08,18,01,09,15.80
2016,08,18,01,10,15.80
2016,08,18,01,11,15.80
2016,08,18,01,12,15.70
2016,08,18,01,13,15.70
2016,08,18,01,14,15.70
2016,08,18,01,15,15.70
2016,08,18,01,16,15.70
2016,08,18,01,17,15.70
2016,08,18,01,18,15.70
2016,08,18,01,19,15.70
2016,08,18,01,20,15.70
2016,08,18,01,21,15.70
2016,08,18,01,22,15.70
2016,08,18,01,23,15.70
2016,08,18,01,24,15.70
2016,08,18,01,25,15.70
2016,08,18,01,26,15.70
2016,08,18,01,27,15.70
2016,08,18,01,28,15.70
2016,08,18,01,29,15.70
2016,08,18,01,30,15.70
2016,08,18,01,31,15.70
2016,08,18,01,32,15.70
2016,08,18,01,33,15.70
2016,08,18,01,34,15.70
2016,08,18,01,35,15.70
2016,08,18,01,36,15.70
2016,08,18,01,37,15.70
2016,08,18,01,38,15.60
2016,08,18,01,39,15.60
2016,08,18,01,40,15.60
2016,08,18,01,41,15.60
2016,08,18,01,42,15.60
2016,08,18,01,43,15.50
2016,08,18,01,44,15.50
2016,08,18,01,45,15.50
2016,08,18,01,46,15.40
2016,08,18,01,47,15.40
2016,08,18,01,48,15.40
2016,08,18,01,49,15.50
2016,08,18,01,50,15.50
2016,08,18,01,51,15.60
2016,08,18,01,52,15.60
2016,08,18,01,53,15.60
2016,08,18,01,54,15.60
2016,08,18,01,55,15.60
2016,08,18,01,56,15.50
2016,08,18,01,57,15.50
2016,08,18,01,58,15.40
2016,08,18,01,59,15.40
2016,08,18,02,00,15.40
2016,08,18,02,01,15.40
2016,08,18,02,02,15.40
2016,08,18,02,03,15.40
2016,08,18,02,04,15.50
2016,08,18,02,05,15.40
2016,08,18,02,06,15.40
2016,08,18,02,07,15.40
2016,08,18,02,08,15.40
2016,08,18,02,09,15.30
2016,08,18,02,10,15.30
2016,08,18,02,11,15.20
2016,08,18,02,12,15.20
2016,08,18,02,13,15.10
2016,08,18,02,14,15.10
2016,08,18,02,15,15.10
2016,08,18,02,16,15.10
2016,08,18,02,17,15.20
2016,08,18,02,18,15.20
2016,08,18,02,19,15.30
2016,08,18,02,20,15.30
2016,08,18,02,21,15.30
2016,08,18,02,22,15.30
2016,08,18,02,23,15.30
2016,08,18,02,24,15.20
2016,08,18,02,25,15.20
2016,08,18,02,26,15.20
2016,08,18,02,27,15.10
2016,08,18,02,28,15.10
2016,08,18,02,29,15.00
2016,08,18,02,30,15.00
2016,08,18,02,31,14.90
2016,08,18,02,32,14.90
2016,08,18,02,33,14.80
2016,08,18,02,34,14.70
2016,08,18,02,35,14.70
2016,08,18,02,36,14.70
2016,08,18,02,37,14.60
2016,08,18,02,38,14.60
2016,08,18,02,39,14.60
2016,08,18,02,40,14.50
2016,08,18,02,41,14.50
2016,08,18,02,42,14.50
2016,08,18,02,43,14.40
2016,08,18,02,44,14.40
2016,08,18,02,45,14.40
2016,08,18,02,46,14.30
2016,08,18,02,47,14.30
2016,08,18,02,48,14.20
2016,08,18,02,49,14.20
2016,08,18,02,50,14.10
2016,08,18,02,51,14.10
2016,08,18,02,52,14.10
2016,08,18,02,53,14.10
2016,08,18,02,54,14.10
2016,08,18,02,55,14.00
2016,08,18,02,56,14.00
2016,08,18,02,57,14.00
2016,08,18,02,58,14.00
2016,08,18,02,59,14.00
2016,08,18,03,00,14.00
2016,08,18,03,01,14.00
2016,08,18,03,02,14.10
2016,08,18,03,03,14.10
2016,08,18,03,04,14.10
2016,08,18,03,05,14.10
2016,08,18,03,06,14.10
2016,08,18,03,07,14.10
2016,08,18,03,08,14.20
2016,08,18,03,09,14.20
2016,08,18,03,10,14.20
2016,08,18,03,11,14.20
2016,08,18,03,12,14.20
2016,08,18,03,13,14.20
2016,08,18,03,14,14.20
2016,08,18,03,15,14.10
2016,08,18,03,16,14.10
2016,08,18,03,17,14.10
2016,08,18,03,18,14.10
2016,08,18,03,19,14.00
2016,08,18,03,20,14.00
2016,08,18,03,21,14.00
2016,08,18,03,22,13.90
2016,08,18,03,23,13.90
2016,08,18,03,24,13.90
2016,08,18,03,25,13.90
2016,08,18,03,26,13.90
2016,08,18,03,27,14.00
2016,08,18,03,28,14.00
2016,08,18,03,29,14.10
2016,08,18,03,30,14.10
2016,08,18,03,31,14.10
2016,08,18,03,32,14.10
2016,08,18,03,33,14.10
2016,08,18,03,34,14.10
2016,08,18,03,35,14.10
2016,08,18,03,36,14.10
2016,08,18,03,37,14.10
2016,08,18,03,38,14.10
2016,08,18,03,39,14.10
2016,08,18,03,40,14.10
2016,08,18,03,41,14.10
2016,08,18,03,42,14.10
2016,08,18,03,43,14.10
2016,08,18,03,44,14.10
2016,08,18,03,45,14.10
2016,08,18,03,46,14.10
2016,08,18,03,47,14.10
2016,08,18,03,48,14.00
2016,08,18,03,49,14.00
2016,08,18,03,50,14.00
2016,08,18,03,51,13.90
2016,08,18,03,52,13.90
2016,08,18,03,53,13.80
2016,08,18,03,54,13.80
2016,08,18,03,55,13.80
2016,08,18,03,56,13.80
2016,08,18,03,57,13.80
2016,08,18,03,58,13.80
2016,08,18,03,59,13.80
2016,08,18,04,00,13.80
2016,08,18,04,01,13.80
2016,08,18,04,02,13.80
2016,08,18,04,03,13.80
2016,08,18,04,04,13.90
2016,08,18,04,05,13.90
2016,08,18,04,06,13.90
2016,08,18,04,07,14.00
2016,08,18,04,08,14.00
2016,08,18,04,09,14.00
2016,08,18,04,10,14.10
2016,08,18,04,11,14.10
2016,08,18,04,12,14.10
2016,08,18,04,13,14.10
2016,08,18,04,14,14.10
2016,08,18,04,15,14.10
2016,08,18,04,16,14.10
2016,08,18,04,17,14.10
2016,08,18,04,18,14.20
2016,08,18,04,19,14.20
2016,08,18,04,20,14.20
2016,08,18,04,21,14.20
2016,08,18,04,22,14.30
2016,08,18,04,23,14.30
2016,08,18,04,24,14.30
2016,08,18,04,25,14.30
2016,08,18,04,26,14.30
2016,08,18,04,27,14.40
2016,08,18,04,28,14.40
2016,08,18,04,29,14.40
2016,08,18,04,30,14.30
2016,08,18,04,31,14.30
2016,08,18,04,32,14.30
2016,08,18,04,33,14.30
2016,08,18,04,34,14.30
2016,08,18,04,35,14.30
2016,08,18,04,36,14.20
2016,08,18,04,37,14.10
2016,08,18,04,38,14.00
2016,08,18,04,39,13.90
2016,08,18,04,40,13.90
2016,08,18,04,41,13.80
2016,08,18,04,42,13.80
2016,08,18,04,43,13.70
2016,08,18,04,44,13.70
2016,08,18,04,45,13.60
2016,08,18,04,46,13.60
2016,08,18,04,47,13.60
2016,08,18,04,48,13.50
2016,08,18,04,49,13.50
2016,08,18,04,50,13.50
2016,08,18,04,51,13.50
2016,08,18,04,52,13.40
2016,08,18,04,53,13.40
2016,08,18,04,54,13.50
2016,08,18,04,55,13.60
2016,08,18,04,56,13.60
2016,08,18,04,57,13.70
2016,08,18,04,58,13.70
2016,08,18,04,59,13.80
2016,08,18,05,00,13.80
2016,08,18,05,01,13.80
2016,08,18,05,02,13.90
2016,08,18,05,03,13.90
2016,08,18,05,04,13.90
2016,08,18,05,05,14.00
2016,08,18,05,06,14.00
2016,08,18,05,07,14.10
2016,08,18,05,08,14.10
2016,08,18,05,09,14.10
2016,08,18,05,10,14.20
2016,08,18,05,11,14.20
2016,08,18,05,12,14.20
2016,08,18,05,13,14.20
2016,08,18,05,14,14.20
2016,08,18,05,15,14.30
2016,08,18,05,16,14.30
2016,08,18,05,17,14.30
2016,08,18,05,18,14.30
2016,08,18,05,19,14.30
2016,08,18,05,20,14.30
2016,08,18,05,21,14.30
2016,08,18,05,22,14.30
2016,08,18,05,23,14.30
2016,08,18,05,24,14.30
2016,08,18,05,25,14.30
2016,08,18,05,26,14.30
2016,08,18,05,27,14.20
2016,08,18,05,28,14.20
2016,08,18,05,29,14.20
2016,08,18,05,30,14.20
2016,08,18,05,31,14.20
2016,08,18,05,32,14.10
2016,08,18,05,33,14.10
2016,08,18,05,34,14.10
2016,08,18,05,35,14.10
2016,08,18,05,36,14.10
2016,08,18,05,37,14.10
2016,08,18,05,38,14.10
2016,08,18,05,39,14.10
2016,08,18,05,40,14.10
2016,08,18,05,41,14.00
2016,08,18,05,42,14.00
2016,08,18,05,43,14.00
2016,08,18,05,44,14.00
2016,08,18,05,45,14.00
2016,08,18,05,46,14.00
2016,08,18,05,47,14.00
2016,08,18,05,48,14.00
2016,08,18,05,49,14.00
2016,08,18,05,50,14.00
2016,08,18,05,51,14.00
2016,08,18,05,52,13.90
2016,08,18,05,53,13.90
2016,08,18,05,54,13.90
2016,08,18,05,55,13.90
2016,08,18,05,56,13.90
2016,08,18,05,57,13.90
2016,08,18,05,58,13.90
2016,08,18,05,59,13.90
2016,08,18,06,00,13.90
2016,08,18,06,01,13.90
2016,08,18,06,02,13.90
2016,08,18,06,03,13.90
2016,08,18,06,04,13.90
2016,08,18,06,05,13.80
2016,08,18,06,06,13.80
2016,08,18,06,07,13.80
2016,08,18,06,08,13.80
2016,08,18,06,09,13.80
2016,08,18,06,10,13.90
2016,08,18,06,11,13.90
2016,08,18,06,12,13.90
2016,08,18,06,13,13.90
2016,08,18,06,14,13.90
2016,08,18,06,15,14.00
2016,08,18,06,16,14.00
2016,08,18,06,17,14.10
2016,08,18,06,18,14.10
2016,08,18,06,19,14.10
2016,08,18,06,20,14.10
2016,08,18,06,21,14.10
2016,08,18,06,22,14.10
2016,08,18,06,23,14.10
2016,08,18,06,24,14.10
2016,08,18,06,25,14.10
2016,08,18,06,26,14.10
2016,08,18,06,27,14.10
2016,08,18,06,28,14.10
2016,08,18,06,29,14.20
2016,08,18,06,30,14.20
2016,08,18,06,31,14.20
2016,08,18,06,32,14.20
2016,08,18,06,33,14.20
2016,08,18,06,34,14.20
2016,08,18,06,35,14.20
2016,08,18,06,36,14.20
2016,08,18,06,37,14.20
2016,08,18,06,38,14.20
2016,08,18,06,39,14.10
2016,08,18,06,40,14.10
2016,08,18,06,41,14.10
2016,08,18,06,42,14.10
2016,08,18,06,43,14.00
2016,08,18,06,44,14.00
2016,08,18,06,45,13.90
2016,08,18,06,46,13.90
2016,08,18,06,47,13.80
2016,08,18,06,48,13.80
2016,08,18,06,49,13.80
2016,08,18,06,50,13.80
2016,08,18,06,51,13.80
2016,08,18,06,52,13.70
2016,08,18,06,53,13.70
2016,08,18,06,54,13.70
2016,08,18,06,55,13.60
2016,08,18,06,56,13.60
2016,08,18,06,57,13.60
2016,08,18,06,58,13.60
2016,08,18,06,59,13.60
2016,08,18,07,00,13.70
2016,08,18,07,01,13.70
2016,08,18,07,02,13.70
2016,08,18,07,03,13.80
2016,08,18,07,04,13.80
2016,08,18,07,05,13.90
2016,08,18,07,06,13.90
2016,08,18,07,07,13.90
2016,08,18,07,08,13.90
2016,08,18,07,09,13.90
2016,08,18,07,10,13.90
2016,08,18,07,11,13.90
2016,08,18,07,12,13.90
2016,08,18,07,13,13.90
2016,08,18,07,14,13.90
2016,08,18,07,15,13.90
2016,08,18,07,16,13.90
2016,08,18,07,17,13.90
2016,08,18,07,18,13.90
2016,08,18,07,19,13.90
2016,08,18,07,20,14.00
2016,08,18,07,21,14.00
2016,08,18,07,22,14.10
2016,08,18,07,23,14.20
2016,08,18,07,24,14.30
2016,08,18,07,25,14.40
2016,08,18,07,26,14.50
2016,08,18,07,27,14.70
2016,08,18,07,28,14.80
2016,08,18,07,29,14.90
2016,08,18,07,30,15.10
2016,08,18,07,31,15.20
2016,08,18,07,32,15.30
2016,08,18,07,33,15.40
2016,08,18,07,34,15.60
2016,08,18,07,35,15.70
2016,08,18,07,36,15.80
2016,08,18,07,37,15.90
2016,08,18,07,38,16.00
2016,08,18,07,39,16.10
2016,08,18,07,40,16.10
2016,08,18,07,41,16.20
2016,08,18,07,42,16.30
2016,08,18,07,43,16.30
2016,08,18,07,44,16.40
2016,08,18,07,45,16.40
2016,08,18,07,46,16.40
2016,08,18,07,47,16.50
2016,08,18,07,48,16.50
2016,08,18,07,49,16.50
2016,08,18,07,50,16.60
2016,08,18,07,51,16.60
2016,08,18,07,52,16.60
2016,08,18,07,53,16.70
2016,08,18,07,54,16.70
2016,08,18,07,55,16.70
2016,08,18,07,56,16.70
2016,08,18,07,57,16.80
2016,08,18,07,58,16.90
2016,08,18,07,59,16.90
2016,08,18,08,00,17.00
2016,08,18,08,01,17.10
2016,08,18,08,02,17.10
2016,08,18,08,03,17.20
2016,08,18,08,04,17.20
2016,08,18,08,05,17.30
2016,08,18,08,06,17.40
2016,08,18,08,07,17.40
2016,08,18,08,08,17.50
2016,08,18,08,09,17.50
2016,08,18,08,10,17.60
2016,08,18,08,11,17.60
2016,08,18,08,12,17.70
2016,08,18,08,13,17.70
2016,08,18,08,14,17.70
2016,08,18,08,15,17.80
2016,08,18,08,16,17.80
2016,08,18,08,17,17.80
2016,08,18,08,18,17.90
2016,08,18,08,19,17.90
2016,08,18,08,20,17.90
2016,08,18,08,21,18.00
2016,08,18,08,22,18.00
2016,08,18,08,23,18.10
2016,08,18,08,24,18.10
2016,08,18,08,25,18.10
2016,08,18,08,26,18.10
2016,08,18,08,27,18.10
2016,08,18,08,28,18.20
2016,08,18,08,29,18.20
2016,08,18,08,30,18.20
2016,08,18,08,31,18.20
2016,08,18,08,32,18.20
2016,08,18,08,33,18.20
2016,08,18,08,34,18.20
2016,08,18,08,35,18.20
2016,08,18,08,36,18.20
2016,08,18,08,37,18.20
2016,08,18,08,38,18.20
2016,08,18,08,39,18.30
2016,08,18,08,40,18.30
2016,08,18,08,41,18.30
2016,08,18,08,42,18.30
2016,08,18,08,43,18.40
2016,08,18,08,44,18.40
2016,08,18,08,45,18.40
2016,08,18,08,46,18.40
2016,08,18,08,47,18.40
2016,08,18,08,48,18.40
2016,08,18,08,49,18.40
2016,08,18,08,50,18.50
2016,08,18,08,51,18.50
2016,08,18,08,52,18.60
2016,08,18,08,53,18.60
2016,08,18,08,54,18.70
2016,08,18,08,55,18.70
2016,08,18,08,56,18.80
2016,08,18,08,57,18.80
2016,08,18,08,58,18.90
2016,08,18,08,59,18.90
2016,08,18,09,00,19.00
2016,08,18,09,01,19.00
2016,08,18,09,02,19.10
2016,08,18,09,03,19.10
2016,08,18,09,04,19.20
2016,08,18,09,05,19.30
2016,08,18,09,06,19.30
2016,08,18,09,07,19.40
2016,08,18,09,08,19.50
2016,08,18,09,09,19.50
2016,08,18,09,10,19.60
2016,08,18,09,11,19.70
2016,08,18,09,12,19.80
2016,08,18,09,13,19.80
2016,08,18,09,14,19.90
2016,08,18,09,15,19.90
2016,08,18,09,16,19.90
2016,08,18,09,17,19.90
2016,08,18,09,18,19.90
2016,08,18,09,19,20.00
2016,08,18,09,20,20.00
2016,08,18,09,21,20.00
2016,08,18,09,22,20.10
2016,08,18,09,23,20.10
2016,08,18,09,24,20.10
2016,08,18,09,25,20.10
2016,08,18,09,26,20.10
2016,08,18,09,27,20.10
2016,08,18,09,28,20.10
2016,08,18,09,29,20.10
2016,08,18,09,30,20.20
2016,08,18,09,31,20.20
2016,08,18,09,32,20.30
2016,08,18,09,33,20.30
2016,08,18,09,34,20.30
2016,08,18,09,35,20.30
2016,08,18,09,36,20.30
2016,08,18,09,37,20.40
2016,08,18,09,38,20.40
2016,08,18,09,39,20.40
2016,08,18,09,40,20.50
2016,08,18,09,41,20.50
2016,08,18,09,42,20.60
2016,08,18,09,43,20.70
2016,08,18,09,44,20.70
2016,08,18,09,45,20.80
2016,08,18,09,46,20.90
2016,08,18,09,47,21.00
2016,08,18,09,48,21.10
2016,08,18,09,49,21.20
2016,08,18,09,50,21.20
2016,08,18,09,51,21.30
2016,08,18,09,52,21.30
2016,08,18,09,53,21.30
2016,08,18,09,54,21.40
2016,08,18,09,55,21.50
2016,08,18,09,56,21.60
2016,08,18,09,57,21.70
2016,08,18,09,58,21.80
2016,08,18,09,59,21.90
2016,08,18,10,00,22.00
2016,08,18,10,01,22.00
2016,08,18,10,02,22.10
2016,08,18,10,03,22.20
2016,08,18,10,04,22.20
2016,08,18,10,05,22.30
2016,08,18,10,06,22.30
2016,08,18,10,07,22.40
2016,08,18,10,08,22.50
2016,08,18,10,09,22.60
2016,08,18,10,10,22.70
2016,08,18,10,11,22.80
2016,08,18,10,12,22.90
2016,08,18,10,13,23.00
2016,08,18,10,14,23.20
2016,08,18,10,15,23.20
2016,08,18,10,16,23.30
2016,08,18,10,17,23.30
2016,08,18,10,18,23.40
2016,08,18,10,19,23.50
2016,08,18,10,20,23.50
2016,08,18,10,21,23.60
2016,08,18,10,22,23.60
2016,08,18,10,23,23.60
2016,08,18,10,24,23.70
2016,08,18,10,25,23.70
2016,08,18,10,26,23.80
2016,08,18,10,27,23.90
2016,08,18,10,28,24.00
2016,08,18,10,29,24.00
2016,08,18,10,30,24.10
2016,08,18,10,31,24.10
2016,08,18,10,32,24.20
2016,08,18,10,33,24.20
2016,08,18,10,34,24.20
2016,08,18,10,35,24.30
2016,08,18,10,36,24.30
2016,08,18,10,37,24.20
2016,08,18,10,38,24.20
2016,08,18,10,39,24.30
2016,08,18,10,40,24.30
2016,08,18,10,41,24.20
2016,08,18,10,42,24.10
2016,08,18,10,43,24.00
2016,08,18,10,44,24.00
2016,08,18,10,45,23.90
2016,08,18,10,46,23.90
2016,08,18,10,47,23.90
2016,08,18,10,48,23.90
2016,08,18,10,49,23.90
2016,08,18,10,50,23.90
2016,08,18,10,51,23.90
2016,08,18,10,52,23.90
2016,08,18,10,53,23.90
2016,08,18,10,54,23.90
2016,08,18,10,55,23.90
2016,08,18,10,56,23.90
2016,08,18,10,57,23.90
2016,08,18,10,58,23.90
2016,08,18,10,59,24.00
2016,08,18,11,00,24.00
2016,08,18,11,01,24.10
2016,08,18,11,02,24.10
2016,08,18,11,03,24.20
2016,08,18,11,04,24.30
2016,08,18,11,05,24.30
2016,08,18,11,06,24.30
2016,08,18,11,07,24.30
2016,08,18,11,08,24.30
2016,08,18,11,09,24.30
2016,08,18,11,10,24.30
2016,08,18,11,11,24.30
2016,08,18,11,12,24.30
2016,08,18,11,13,24.30
2016,08,18,11,14,24.40
2016,08,18,11,15,24.40
2016,08,18,11,16,24.50
2016,08,18,11,17,24.60
2016,08,18,11,18,24.60
2016,08,18,11,19,24.60
2016,08,18,11,20,24.60
2016,08,18,11,21,24.70
2016,08,18,11,22,24.70
2016,08,18,11,23,24.60
2016,08,18,11,24,24.60
2016,08,18,11,25,24.60
2016,08,18,11,26,24.60
2016,08,18,11,27,24.70
2016,08,18,11,28,24.70
2016,08,18,11,29,24.70
2016,08,18,11,30,24.70
2016,08,18,11,31,24.70
2016,08,18,11,32,24.70
2016,08,18,11,33,24.80
2016,08,18,11,34,24.90
2016,08,18,11,35,25.00
2016,08,18,11,36,25.10
2016,08,18,11,37,25.20
2016,08,18,11,38,25.20
2016,08,18,11,39,25.30
2016,08,18,11,40,25.30
2016,08,18,11,41,25.30
2016,08,18,11,42,25.30
2016,08,18,11,43,25.30
2016,08,18,11,44,25.30
2016,08,18,11,45,25.20
2016,08,18,11,46,25.20
2016,08,18,11,47,25.30
2016,08,18,11,48,25.30
2016,08,18,11,49,25.40
2016,08,18,11,50,25.50
2016,08,18,11,51,25.60
2016,08,18,11,52,25.60
2016,08,18,11,53,25.60
2016,08,18,11,54,25.70
2016,08,18,11,55,25.70
2016,08,18,11,56,25.80
2016,08,18,11,57,25.80
2016,08,18,11,58,25.90
2016,08,18,11,59,25.90
2016,08,18,12,00,25.90
2016,08,18,12,01,25.80
2016,08,18,12,02,25.80
2016,08,18,12,03,25.70
2016,08,18,12,04,25.70
2016,08,18,12,05,25.70
2016,08,18,12,06,25.70
2016,08,18,12,07,25.70
2016,08,18,12,08,25.80
2016,08,18,12,09,25.80
2016,08,18,12,10,25.80
2016,08,18,12,11,25.90
2016,08,18,12,12,25.90
2016,08,18,12,13,25.90
2016,08,18,12,14,26.00
2016,08,18,12,15,26.00
2016,08,18,12,16,26.00
2016,08,18,12,17,26.10
2016,08,18,12,18,26.20
2016,08,18,12,19,26.30
2016,08,18,12,20,26.40
2016,08,18,12,21,26.60
2016,08,18,12,22,26.70
2016,08,18,12,23,26.80
2016,08,18,12,24,26.80
2016,08,18,12,25,26.80
2016,08,18,12,26,26.90
2016,08,18,12,27,27.00
2016,08,18,12,28,27.00
2016,08,18,12,29,27.00
2016,08,18,12,30,27.00
2016,08,18,12,31,27.10
2016,08,18,12,32,27.10
2016,08,18,12,33,27.10
2016,08,18,12,34,27.20
2016,08,18,12,35,27.10
2016,08,18,12,36,27.10
2016,08,18,12,37,27.10
2016,08,18,12,38,27.00
2016,08,18,12,39,27.00
2016,08,18,12,40,26.90
2016,08,18,12,41,26.90
2016,08,18,12,42,26.90
2016,08,18,12,43,26.90
2016,08,18,12,44,27.00
2016,08,18,12,45,27.00
2016,08,18,12,46,27.00
2016,08,18,12,47,27.00
2016,08,18,12,48,27.00
2016,08,18,12,49,27.10
2016,08,18,12,50,27.10
2016,08,18,12,51,27.20
2016,08,18,12,52,27.20
2016,08,18,12,53,27.30
2016,08,18,12,54,27.30
2016,08,18,12,55,27.30
2016,08,18,12,56,27.30
2016,08,18,12,57,27.20
2016,08,18,12,58,27.20
2016,08,18,12,59,27.20
2016,08,18,13,00,27.30
2016,08,18,13,01,27.30
2016,08,18,13,02,27.50
2016,08,18,13,03,27.60
2016,08,18,13,04,27.70
2016,08,18,13,05,27.90
2016,08,18,13,06,27.90
2016,08,18,13,07,28.10
2016,08,18,13,08,28.20
2016,08,18,13,09,28.30
2016,08,18,13,10,28.40
2016,08,18,13,11,28.50
2016,08,18,13,12,28.50
2016,08,18,13,13,28.60
2016,08,18,13,14,28.70
2016,08,18,13,15,28.80
2016,08,18,13,16,28.80
2016,08,18,13,17,28.90
2016,08,18,13,18,28.90
2016,08,18,13,19,28.90
2016,08,18,13,20,28.90
2016,08,18,13,21,28.90
2016,08,18,13,22,28.90
2016,08,18,13,23,28.80
2016,08,18,13,24,28.80
2016,08,18,13,25,28.80
2016,08,18,13,26,28.90
2016,08,18,13,27,28.90
2016,08,18,13,28,28.90
2016,08,18,13,29,29.00
2016,08,18,13,30,29.00
2016,08,18,13,31,29.00
2016,08,18,13,32,29.10
2016,08,18,13,33,29.10
2016,08,18,13,34,29.00
2016,08,18,13,35,28.80
2016,08,18,13,36,28.70
2016,08,18,13,37,28.70
2016,08,18,13,38,28.70
2016,08,18,13,39,28.70
2016,08,18,13,40,28.80
2016,08,18,13,41,28.80
2016,08,18,13,42,28.80
2016,08,18,13,43,28.90
2016,08,18,13,44,28.90
2016,08,18,13,45,28.90
2016,08,18,13,46,28.90
2016,08,18,13,47,28.90
2016,08,18,13,48,28.80
2016,08,18,13,49,28.80
2016,08,18,13,50,28.70
2016,08,18,13,51,28.70
2016,08,18,13,52,28.60
2016,08,18,13,53,28.60
2016,08,18,13,54,28.60
2016,08,18,13,55,28.60
2016,08,18,13,56,28.60
2016,08,18,13,57,28.70
2016,08,18,13,58,28.70
2016,08,18,13,59,28.80
2016,08,18,14,00,28.80
2016,08,18,14,01,28.90
2016,08,18,14,02,28.90
2016,08,18,14,03,29.00
2016,08,18,14,04,29.10
2016,08,18,14,05,29.10
2016,08,18,14,06,29.20
2016,08,18,14,07,29.20
2016,08,18,14,08,29.30
2016,08,18,14,09,29.40
2016,08,18,14,10,29.50
2016,08,18,14,11,29.50
2016,08,18,14,12,29.60
2016,08,18,14,13,29.60
2016,08,18,14,14,29.70
2016,08,18,14,15,29.70
2016,08,18,14,16,29.70
2016,08,18,14,17,29.70
2016,08,18,14,18,29.70
2016,08,18,14,19,29.70
2016,08,18,14,20,29.70
2016,08,18,14,21,29.70
2016,08,18,14,22,29.70
2016,08,18,14,23,29.70
2016,08,18,14,24,29.80
2016,08,18,14,25,29.80
2016,08,18,14,26,29.70
2016,08,18,14,27,29.70
2016,08,18,14,28,29.70
2016,08,18,14,29,29.70
2016,08,18,14,30,29.70
2016,08,18,14,31,29.70
2016,08,18,14,32,29.80
2016,08,18,14,33,29.80
2016,08,18,14,34,29.80
2016,08,18,14,35,29.80
2016,08,18,14,36,29.90
2016,08,18,14,37,29.90
2016,08,18,14,38,30.00
2016,08,18,14,39,30.10
2016,08,18,14,40,30.20
2016,08,18,14,41,30.20
2016,08,18,14,42,30.20
2016,08,18,14,43,30.20
2016,08,18,14,44,30.30
2016,08,18,14,45,30.30
2016,08,18,14,46,30.30
2016,08,18,14,47,30.30
2016,08,18,14,48,30.30
2016,08,18,14,49,30.30
2016,08,18,14,50,30.30
2016,08,18,14,51,30.20
2016,08,18,14,52,30.10
2016,08,18,14,53,30.10
2016,08,18,14,54,30.10
2016,08,18,14,55,30.10
2016,08,18,14,56,30.20
2016,08,18,14,57,30.20
2016,08,18,14,58,30.20
2016,08,18,14,59,30.20
2016,08,18,15,00,30.20
2016,08,18,15,01,30.20
2016,08,18,15,02,30.10
2016,08,18,15,03,30.10
2016,08,18,15,04,30.00
2016,08,18,15,05,30.00
2016,08,18,15,06,30.00
2016,08,18,15,07,30.10
2016,08,18,15,08,30.20
2016,08,18,15,09,30.20
2016,08,18,15,10,30.20
2016,08,18,15,11,30.30
2016,08,18,15,12,30.30
2016,08,18,15,13,30.30
2016,08,18,15,14,30.30
2016,08,18,15,15,30.40
2016,08,18,15,16,30.40
2016,08,18,15,17,30.40
2016,08,18,15,18,30.40
2016,08,18,15,19,30.40
2016,08,18,15,20,30.40
2016,08,18,15,21,30.40
2016,08,18,15,22,30.40
2016,08,18,15,23,30.40
2016,08,18,15,24,30.30
2016,08,18,15,25,30.30
2016,08,18,15,26,30.30
2016,08,18,15,27,30.20
2016,08,18,15,28,30.20
2016,08,18,15,29,30.20
2016,08,18,15,30,30.20
2016,08,18,15,31,30.20
2016,08,18,15,32,30.10
2016,08,18,15,33,30.10
2016,08,18,15,34,30.00
2016,08,18,15,35,30.00
2016,08,18,15,36,29.90
2016,08,18,15,37,29.90
2016,08,18,15,38,29.90
2016,08,18,15,39,29.90
2016,08,18,15,40,29.90
2016,08,18,15,41,30.00
2016,08,18,15,42,30.10
2016,08,18,15,43,30.10
2016,08,18,15,44,30.20
2016,08,18,15,45,30.20
2016,08,18,15,46,30.30
2016,08,18,15,47,30.40
2016,08,18,15,48,30.40
2016,08,18,15,49,30.50
2016,08,18,15,50,30.50
2016,08,18,15,51,30.60
2016,08,18,15,52,30.70
2016,08,18,15,53,30.70
2016,08,18,15,54,30.80
2016,08,18,15,55,30.80
2016,08,18,15,56,30.90
2016,08,18,15,57,30.90
2016,08,18,15,58,31.00
2016,08,18,15,59,31.00
2016,08,18,16,00,30.90
2016,08,18,16,01,30.90
2016,08,18,16,02,30.90
2016,08,18,16,03,31.00
2016,08,18,16,04,31.00
2016,08,18,16,05,31.00
2016,08,18,16,06,31.00
2016,08,18,16,07,31.00
2016,08,18,16,08,31.00
2016,08,18,16,09,31.00
2016,08,18,16,10,31.00
2016,08,18,16,11,31.00
2016,08,18,16,12,30.90
2016,08,18,16,13,30.90
2016,08,18,16,14,30.90
2016,08,18,16,15,30.90
2016,08,18,16,16,30.90
2016,08,18,16,17,30.90
2016,08,18,16,18,30.90
2016,08,18,16,19,30.90
2016,08,18,16,20,30.90
2016,08,18,16,21,30.90
2016,08,18,16,22,31.00
2016,08,18,16,23,31.00
2016,08,18,16,24,31.10
2016,08,18,16,25,31.20
2016,08,18,16,26,31.20
2016,08,18,16,27,31.30
2016,08,18,16,28,31.30
2016,08,18,16,29,31.40
2016,08,18,16,30,31.40
2016,08,18,16,31,31.40
2016,08,18,16,32,31.40
2016,08,18,16,33,31.40
2016,08,18,16,34,31.40
2016,08,18,16,35,31.40
2016,08,18,16,36,31.40
2016,08,18,16,37,31.40
2016,08,18,16,38,31.50
2016,08,18,16,39,31.50
2016,08,18,16,40,31.50
2016,08,18,16,41,31.60
2016,08,18,16,42,31.60
2016,08,18,16,43,31.60
2016,08,18,16,44,31.70
2016,08,18,16,45,31.70
2016,08,18,16,46,31.80
2016,08,18,16,47,31.80
2016,08,18,16,48,31.80
2016,08,18,16,49,31.80
2016,08,18,16,50,31.70
2016,08,18,16,51,31.70
2016,08,18,16,52,31.70
2016,08,18,16,53,31.80
2016,08,18,16,54,31.80
2016,08,18,16,55,31.70
2016,08,18,16,56,31.70
2016,08,18,16,57,31.70
2016,08,18,16,58,31.70
2016,08,18,16,59,31.70
2016,08,18,17,00,31.70
2016,08,18,17,01,31.70
2016,08,18,17,02,31.70
2016,08,18,17,03,31.80
2016,08,18,17,04,31.80
2016,08,18,17,05,31.90
2016,08,18,17,06,31.90
2016,08,18,17,07,31.90
2016,08,18,17,08,32.00
2016,08,18,17,09,32.00
2016,08,18,17,10,32.10
2016,08,18,17,11,32.10
2016,08,18,17,12,32.20
2016,08,18,17,13,32.30
2016,08,18,17,14,32.30
2016,08,18,17,15,32.20
2016,08,18,17,16,32.20
2016,08,18,17,17,32.20
2016,08,18,17,18,32.10
2016,08,18,17,19,32.10